[[{"header":{"parameterUnit":"m.s-1","parameterCategory":1,"la1":30.2991,"la2":30.254,"lo1":-89.0895,"lo2":-89.0444,"dy":0.0017,"dx":0.0017,"nx":28,"ny":28,"refTime":"2024-11-24T09:00:00:Z","depth":0,"parameterNumber":2,"parameterNumberName":"U-component_of_WINDS"},"data":[0,0,0,0,0,0,0,0,0,0,0,0,0,0,0,0,0,0,0,0,0,0,0,0,0,0,0,0,0,0,0,0,0,0,0,0,0,0,0,0,0,0,0,0,0,0,0,0,0,0,0,0,0,0,0,0,0,0,1.3494,1.3495,0,1.3587,1.3588,1.3589,1.3569,1.3567,1.3565,1.3564,1.3664,1.3669,1.3673,0,0,0,0,0,0,0,0,0,0,0,0,0,1.3306,1.3309,1.3494,1.3496,1.3497,1.3587,1.3588,1.359,1.3569,1.3567,1.3565,1.3563,1.3663,1.3668,1.3673,0,0,0,0,0,0,0,0,0,0,0,0,0,1.3392,1.3311,1.3494,1.3497,1.3498,1.3587,1.3588,1.359,1.357,1.3567,1.3564,1.3562,1.3661,1.3668,1.3674,1.3767,0,0,1.3694,1.3697,0,0,0,0,0,0,0,0,1.3387,1.3399,1.3496,1.3497,1.3499,1.3564,1.3559,1.365,1.357,1.3543,1.3564,1.356,1.3633,1.3642,1.3665,1.3772,1.3776,1.3694,1.3698,1.3701,1.3703,0,0,0,0,0,0,0,1.3381,1.3395,1.3531,1.3497,1.3499,1.3496,1.3505,1.3576,1.3602,1.3545,1.3544,1.3555,1.3634,1.3659,1.3668,1.3777,1.3694,1.37,1.3704,1.3706,1.3968,1.3971,0,0,0,0,0,0,1.3373,1.339,1.3528,1.3534,1.3435,1.3502,1.3512,1.3546,1.3601,1.3607,1.3557,1.3553,1.3649,1.366,1.3671,1.3785,1.3701,1.3707,1.3711,1.3965,1.3968,1.3972,0,0,0,0,0,0,1.3369,1.3386,1.3525,1.3462,1.3479,1.3508,1.3545,1.3549,1.3574,1.361,1.3615,1.3577,1.3648,1.3662,1.3743,1.3788,1.371,1.3716,1.3961,1.3966,1.397,1.4013,0,0,0,0,0,0,1.3364,1.3384,1.3418,1.3463,1.3483,1.3593,1.3548,1.3552,1.3585,1.3581,1.3631,1.3637,1.3647,1.3734,1.375,1.3796,1.3721,1.3957,1.3963,1.3969,1.4008,1.4019,1.4028,0,0,0,0,0,1.3357,1.3427,1.342,1.3437,1.3525,1.3596,1.3608,1.3616,1.3588,1.3624,1.3647,1.3635,1.3781,1.3742,1.376,1.3809,1.3954,1.3962,1.3968,1.4004,1.4017,1.4028,0,0,0,0,0,0,1.3389,1.3433,1.3426,1.3512,1.355,1.3592,1.3637,1.363,1.3678,1.3673,1.3683,1.3695,1.3778,1.3802,1.3758,1.3903,1.3864,1.3875,1.3885,1.3898,1.3907,1.3901,1.3726,0,0,0,0,0,1.3406,1.3457,1.3494,1.3567,1.3586,1.3609,1.364,1.3643,1.3684,1.3701,1.373,1.3772,1.3827,1.3864,1.3916,1.4011,1.4023,1.4054,1.4064,1.4072,1.4082,1.4136,1.4151,1.3994,1.3994,1.3994,0,0,1.3441,1.3472,1.3504,1.3574,1.3604,1.366,1.3622,1.3682,1.3725,1.371,1.3789,1.3812,1.386,1.3949,1.399,1.3971,1.4127,1.4081,1.4087,1.4092,1.4145,1.4159,1.4173,1.3999,1.3998,1.3997,0,0,1.3535,1.3562,1.3626,1.3658,1.3703,1.3718,1.3734,1.3778,1.3792,1.3871,1.3862,1.3914,1.4008,1.4043,1.4073,1.4182,1.4174,1.42,1.4252,1.4305,1.4318,1.4329,1.4369,1.4384,1.4209,1.4209,1.4209,0,1.3574,1.3655,1.3661,1.3722,1.3755,1.3743,1.381,1.384,1.3902,1.3926,1.3903,1.4023,1.4054,1.4153,1.4179,1.4204,1.4224,1.4194,1.4315,1.4326,1.4336,1.4376,1.4391,1.4212,1.4211,1.4211,1.4211,0,1.3702,1.3759,1.3806,1.3864,1.3902,1.3965,1.3984,1.4021,1.4022,1.404,1.4122,1.4159,1.422,1.4244,1.4245,1.4344,1.4331,1.4312,1.4273,1.4354,1.4391,1.4406,1.4216,1.4215,1.4214,1.4213,0,0,1.3817,1.3879,1.3896,1.3923,1.3974,1.4019,1.4084,1.4142,1.4176,1.4219,1.4275,1.4356,1.434,1.4374,1.438,1.4426,1.4513,1.4402,1.4403,1.4423,1.4626,1.4641,1.4658,1.4507,1.451,1.4512,1.4623,0,1.3916,1.4028,1.4036,1.4138,1.4192,1.4183,1.424,1.4279,1.4298,1.4349,1.437,1.4428,1.4401,1.4422,1.4467,1.4493,1.4554,1.4485,1.4562,1.4565,1.4551,1.4677,1.4692,1.4795,1.4637,1.4639,1.4641,0,1.4046,1.4093,1.4199,1.4244,1.4267,1.4318,1.4374,1.4421,1.4466,1.4477,1.4516,1.4516,1.4586,1.4543,1.4641,1.4593,1.4626,1.4644,1.4648,1.4656,1.4609,1.469,1.4827,1.4843,1.4664,1.4662,1.466,0,1.4121,1.4211,1.4287,1.431,1.4364,1.44,1.4425,1.4467,1.4502,1.4552,1.4575,1.4633,1.4665,1.471,1.4727,1.4694,1.4825,1.4783,1.4838,1.4838,1.4866,1.4864,1.5011,1.4885,1.4885,1.4884,1.4884,0,1.4232,1.4298,1.4322,1.4369,1.4444,1.4454,1.4529,1.4552,1.459,1.4643,1.4639,1.469,1.4708,1.4762,1.4776,1.4856,1.487,1.4883,1.4886,1.4884,1.4882,1.4906,1.49,1.4888,1.4888,1.4887,1.4886,0,1.4329,1.4347,1.4429,1.4474,1.4487,1.454,1.4579,1.4626,1.4645,1.4712,1.4729,1.4759,1.4823,1.4844,1.4922,1.4931,1.5025,1.5021,1.5009,1.501,1.5064,1.506,1.5233,1.5257,1.5113,1.5114,1.5116,0,1.4398,1.4449,1.4499,1.4533,1.4559,1.4615,1.4651,1.4664,1.4702,1.4758,1.4799,1.4862,1.4913,1.5017,1.5047,1.5107,1.5106,1.5163,1.5115,1.5112,1.5109,1.5107,1.5113,1.5172,1.5173,1.5175,1.5176,0,1.452,1.4527,1.4578,1.4633,1.4676,1.4721,1.4764,1.4793,1.4813,1.4857,1.4921,1.4961,1.5041,1.5104,1.5166,1.5194,1.519,1.519,1.5206,1.5205,1.5197,1.5204,1.5035,1.5186,1.5185,1.5185,1.5184,1.5184,1.4607,1.4652,1.4695,1.4753,1.4786,1.4827,1.4874,1.4898,1.4952,1.5016,1.5022,1.5092,1.5139,1.5221,1.5252,1.531,1.5294,1.5317,1.5323,1.5329,1.5334,1.5187,1.5321,1.5321,1.532,1.532,1.532,0,1.473,1.4757,1.481,1.4871,1.4917,1.4907,1.4954,1.4995,1.5056,1.5099,1.515,1.5226,1.5288,1.5324,1.5387,1.5426,1.5426,1.5443,1.544,1.5448,1.5343,1.5324,1.5442,1.5442,1.5442,1.5442,1.5442,1.5442,1.48,1.4877,1.4889,1.4984,1.5012,1.508,1.5108,1.5147,1.5181,1.5266,1.5317,1.5339,1.5381,1.5447,1.5505,1.5514,1.5538,1.5557,1.5565,1.5467,1.5454,1.5443,1.5424,1.5562,1.5562,1.5664,1.5665,1.5666]},{"header":{"parameterUnit":"m.s-1","parameterCategory":1,"la1":30.2991,"la2":30.254,"lo1":-89.0895,"lo2":-89.0444,"dy":0.0017,"dx":0.0017,"nx":28,"ny":28,"refTime":"2024-11-24T09:00:00:Z","depth":0,"parameterNumber":3,"parameterNumberName":"V-component_of_WINDS"},"data":[0,0,0,0,0,0,0,0,0,0,0,0,0,0,0,0,0,0,0,0,0,0,0,0,0,0,0,0,0,0,0,0,0,0,0,0,0,0,0,0,0,0,0,0,0,0,0,0,0,0,0,0,0,0,0,0,0,0,3.3747,3.3751,0,3.4119,3.4123,3.4127,3.4246,3.4244,3.4242,3.4241,3.4625,3.4637,3.4648,0,0,0,0,0,0,0,0,0,0,0,0,0,3.3142,3.3152,3.3746,3.3751,3.3756,3.4118,3.4123,3.4128,3.4246,3.4244,3.4242,3.424,3.4621,3.4635,3.465,0,0,0,0,0,0,0,0,0,0,0,0,0,3.3448,3.3156,3.3745,3.3858,3.3872,3.4117,3.4123,3.413,3.4247,3.4244,3.4241,3.4239,3.4617,3.4634,3.4651,3.4813,0,0,3.4706,3.4713,0,0,0,0,0,0,0,0,3.3431,3.347,3.3837,3.3851,3.3867,3.4133,3.4051,3.4359,3.4247,3.4104,3.4241,3.4238,3.4464,3.4494,3.457,3.4831,3.4847,3.4707,3.4718,3.4726,3.4731,0,0,0,0,0,0,0,3.3409,3.3455,3.3894,3.3842,3.386,3.3891,3.3932,3.411,3.4294,3.4117,3.4126,3.4168,3.4471,3.4552,3.4579,3.4853,3.4707,3.4723,3.4734,3.4741,3.5267,3.527,0,0,0,0,0,0,3.3369,3.3436,3.3882,3.3905,3.3638,3.3904,3.395,3.405,3.4292,3.4327,3.417,3.4172,3.4523,3.4559,3.4593,3.4799,3.4726,3.4742,3.4752,3.5264,3.5268,3.5271,0,0,0,0,0,0,3.3355,3.3407,3.3867,3.3674,3.3734,3.3917,3.4029,3.4059,3.414,3.4333,3.4367,3.4218,3.4522,3.4568,3.4758,3.4814,3.475,3.4766,3.526,3.5265,3.527,3.5211,0,0,0,0,0,0,3.3337,3.3402,3.3464,3.3674,3.3744,3.4023,3.4033,3.4068,3.417,3.4176,3.4387,3.442,3.4524,3.473,3.4775,3.4838,3.478,3.5256,3.5262,3.5268,3.5209,3.5213,3.5217,0,0,0,0,0,3.3315,3.3433,3.3466,3.3519,3.3825,3.4026,3.4067,3.4183,3.4173,3.4238,3.4363,3.4413,3.48,3.4749,3.48,3.4869,3.5253,3.526,3.5267,3.5207,3.5213,3.5217,0,0,0,0,0,0,3.3225,3.3462,3.3502,3.3691,3.3837,3.4046,3.4131,3.4185,3.4338,3.4338,3.4478,3.4524,3.4703,3.4805,3.4743,3.5038,3.5029,3.5047,3.4965,3.4972,3.4976,3.4948,3.4795,0,0,0,0,0,3.3227,3.3369,3.3569,3.3717,3.3788,3.3946,3.4038,3.4115,3.4273,3.4336,3.4475,3.4627,3.4783,3.4883,3.5038,3.5224,3.5273,3.5297,3.5301,3.5304,3.5318,3.5425,3.5439,3.5296,3.5296,3.5296,0,0,3.3233,3.338,3.3461,3.3702,3.3825,3.397,3.3998,3.415,3.426,3.436,3.4547,3.4653,3.4833,3.5021,3.5111,3.5112,3.5368,3.5313,3.5314,3.5327,3.5434,3.5448,3.546,3.5301,3.53,3.5299,0,0,3.3318,3.3443,3.358,3.3702,3.3887,3.3992,3.4025,3.4226,3.43,3.449,3.4568,3.4701,3.4967,3.5092,3.5191,3.5324,3.5376,3.537,3.5393,3.5496,3.5507,3.5518,3.5567,3.5582,3.5384,3.5384,3.5383,0,3.3302,3.3523,3.3644,3.3793,3.3897,3.3993,3.4134,3.4247,3.4473,3.4544,3.4541,3.4877,3.5005,3.5225,3.5257,3.5333,3.5376,3.5347,3.5496,3.5508,3.552,3.5568,3.5585,3.5382,3.5382,3.5382,3.5382,0,3.3495,3.3647,3.3736,3.3951,3.4066,3.4209,3.4353,3.4455,3.4522,3.4627,3.482,3.4976,3.5165,3.5223,3.529,3.5453,3.5447,3.5468,3.5462,3.5529,3.5577,3.5596,3.5379,3.538,3.538,3.5381,0,0,3.3534,3.3814,3.3845,3.3944,3.4156,3.4277,3.4425,3.4609,3.4694,3.4847,3.4976,3.5199,3.522,3.5332,3.5414,3.5505,3.5601,3.5516,3.5522,3.5527,3.5792,3.5775,3.5794,3.5637,3.5641,3.5644,3.5777,0,3.3647,3.3916,3.4029,3.4246,3.4389,3.4483,3.4613,3.4757,3.486,3.4997,3.5112,3.5268,3.5283,3.5351,3.5445,3.5569,3.5657,3.5562,3.5761,3.5766,3.5713,3.5819,3.5802,3.5919,3.5796,3.5799,3.5802,0,3.3815,3.3968,3.4198,3.4394,3.4458,3.4572,3.475,3.488,3.5046,3.5115,3.5239,3.5317,3.5479,3.5461,3.5686,3.5619,3.5707,3.5781,3.5788,3.5812,3.5788,3.5846,3.5959,3.5976,3.5832,3.5829,3.5827,0,3.3821,3.4085,3.4257,3.4339,3.4571,3.465,3.475,3.4914,3.5017,3.5173,3.5242,3.5414,3.5509,3.5641,3.5765,3.574,3.5979,3.5971,3.6042,3.6038,3.6088,3.6083,3.6217,3.6143,3.6143,3.6143,3.6142,0,3.3935,3.4073,3.4263,3.4369,3.4527,3.4657,3.481,3.4917,3.5062,3.5192,3.5284,3.5404,3.5559,3.57,3.5797,3.597,3.6012,3.6073,3.6097,3.6065,3.6057,3.6125,3.612,3.6147,3.6146,3.6145,3.6145,0,3.3969,3.4102,3.4296,3.4499,3.4554,3.4661,3.4836,3.4944,3.505,3.5214,3.526,3.5428,3.5598,3.5734,3.5956,3.6022,3.6204,3.6231,3.6147,3.616,3.6223,3.6215,3.6406,3.6438,3.634,3.6341,3.6342,0,3.4034,3.4142,3.4357,3.4449,3.4549,3.4697,3.4803,3.4935,3.5042,3.524,3.5324,3.55,3.5648,3.5916,3.6059,3.623,3.6263,3.6318,3.6289,3.6254,3.6265,3.6257,3.6269,3.6321,3.6321,3.6322,3.6322,0,3.4135,3.4195,3.4343,3.4515,3.4638,3.478,3.4924,3.4995,3.5154,3.5269,3.5444,3.5558,3.5785,3.596,3.6146,3.6251,3.6314,3.633,3.6355,3.6324,3.6271,3.6302,3.6156,3.6325,3.6325,3.6324,3.6324,3.6324,3.4187,3.4288,3.4455,3.4617,3.4739,3.4872,3.4983,3.5103,3.5251,3.5445,3.5515,3.5694,3.586,3.6116,3.6222,3.6366,3.6371,3.6407,3.6417,3.6424,3.6421,3.6247,3.64,3.64,3.64,3.64,3.64,0,3.4294,3.4406,3.4554,3.4752,3.488,3.4926,3.5088,3.5193,3.5349,3.5497,3.5641,3.5842,3.6012,3.6168,3.6346,3.6431,3.6464,3.6473,3.6469,3.6492,3.6406,3.6366,3.6444,3.6444,3.6444,3.6443,3.6443,3.6443,3.4364,3.4538,3.4618,3.4853,3.4965,3.5141,3.5229,3.5353,3.5472,3.5692,3.5833,3.5933,3.6086,3.6276,3.6434,3.6476,3.6538,3.6539,3.6588,3.6504,3.6498,3.6493,3.6456,3.6551,3.6551,3.6664,3.6665,3.6665]}]]